STARLINK-5390 (54872 NORAD) Tracking and Keplerian Element Data

This shows tracking and keplerian element data for the satellite.

Feedback or suggestion? Click here.




ElementValue
Catalog54872
NameSTARLINK-5390
Epoch Orbit1360
Epoch Day85.110533
Epoch Year2023
RAAN226.0399
Inclination43.0049
Eccentricity0.000214
Argument of Perigee261.6115
Mean Anonmoly98.4485
Mean Motion15.02523324
Decay Rate-2.718E-05
L11 54872U 22177BE 23085.11053300 -.00002718 00000+0 -18625-3 0 9990
L22 54872 43.0049 226.0399 0002140 261.6115 98.4485 15.02523324 13603



Live tracking and technical data element details for STARLINK-5390 (NORAD 54872). STARLINK-5390 can be tracked NOW for your location showing map with azimuth and elevation plus other details from your city location.







IsCatalogInMostPopularTable: catalog: 54872, numindb: 13
Update: records affected: 1



GetName: 54872 STARLINK-5390

Hit Count: updated at: Mon, 27 Mar 2023 07:22:11 GMT